| time (UTC) | temp F | wind direction | speed MPH | gust MPH | rain 1hr in | rain 24hr in | rain mn in | humidity % | barometer mb |
| 20260502185012 | 66 | 74 | 8.0 | 10.0 | 0.00 | 0.00 | 0.00 | 36 | 1022.1 |
| 20260502184508 | 69 | 34 | 2.0 | 4.0 | 0.00 | 0.00 | 0.00 | 33 | 1022.1 |
| 20260502184004 | 67 | 54 | 3.0 | 6.0 | 0.00 | 0.00 | 0.00 | 34 | 1022.3 |
| 20260502183500 | 66 | 338 | 5.0 | 7.0 | 0.00 | 0.00 | 0.00 | 35 | 1022.3 |
| 20260502182955 | 65 | 327 | 0.0 | 6.0 | 0.00 | 0.00 | 0.00 | 36 | 1022.5 |
| 20260502182451 | 66 | 46 | 0.0 | 4.0 | 0.00 | 0.00 | 0.00 | 35 | 1022.3 |
| 20260502181948 | 68 | 68 | 0.0 | 7.0 | 0.00 | 0.00 | 0.00 | 35 | 1022.5 |
| 20260502181446 | 65 | 39 | 4.0 | 9.0 | 0.00 | 0.00 | 0.00 | 37 | 1022.3 |
| 20260502180945 | 66 | 76 | 3.0 | 6.0 | 0.00 | 0.00 | 0.00 | 36 | 1022.3 |
| 20260502180442 | 66 | 51 | 5.0 | 8.0 | 0.00 | 0.00 | 0.00 | 36 | 1022.4 |
| 20260502170406 | 65 | 332 | 4.0 | 6.0 | 0.00 | 0.00 | 0.00 | 38 | 1022.7 |
| 20260502163849 | 63 | 81 | 4.0 | 15.0 | 0.00 | 0.00 | 0.00 | 40 | 1022.8 |
| 20260502163345 | 64 | 51 | 2.0 | 7.0 | 0.00 | 0.00 | 0.00 | 38 | 1022.6 |
| 20260502162843 | 63 | 16 | 0.0 | 6.0 | 0.00 | 0.00 | 0.00 | 39 | 1022.8 |
| 20260502162339 | 63 | 35 | 1.0 | 7.0 | 0.00 | 0.00 | 0.00 | 40 | 1022.9 |
| 20260502161837 | 62 | 53 | 4.0 | 7.0 | 0.00 | 0.00 | 0.00 | 40 | 1022.9 |
| 20260502161332 | 62 | 54 | 3.0 | 9.0 | 0.00 | 0.00 | 0.00 | 41 | 1022.7 |
| 20260502160831 | 62 | 70 | 6.0 | 8.0 | 0.00 | 0.00 | 0.00 | 40 | 1023.0 |
| 20260502160329 | 61 | 69 | 6.0 | 11.0 | 0.00 | 0.00 | 0.00 | 41 | 1022.9 |
| 20260502152258 | 60 | 72 | 6.0 | 9.0 | 0.00 | 0.00 | 0.00 | 42 | 1022.7 |
| 20260502151756 | 59 | 85 | 2.0 | 8.0 | 0.00 | 0.00 | 0.00 | 42 | 1022.8 |
| 20260502151253 | 59 | 64 | 6.0 | 8.0 | 0.00 | 0.00 | 0.00 | 42 | 1022.8 |
| 20260502150751 | 58 | 76 | 6.0 | 13.0 | 0.00 | 0.00 | 0.00 | 43 | 1022.8 |
| 20260502150247 | 58 | 71 | 6.0 | 13.0 | 0.00 | 0.00 | 0.00 | 43 | 1022.6 |
| 20260502130635 | 51 | 345 | 0.0 | 3.0 | 0.00 | 0.00 | 0.00 | 52 | 1021.8 |
| 20260502130133 | 50 | 20 | 2.0 | 3.0 | 0.00 | 0.00 | 0.00 | 52 | 1021.7 |
| 20260502123619 | 48 | 25 | 0.0 | 2.0 | 0.00 | 0.00 | 0.00 | 55 | 1021.4 |
| 20260502123115 | 47 | 353 | 0.0 | 3.0 | 0.00 | 0.00 | 0.00 | 55 | 1021.2 |
| 20260502122612 | 47 | 60 | 2.0 | 6.0 | 0.00 | 0.00 | 0.00 | 55 | 1021.0 |
| 20260502122109 | 47 | 17 | 1.0 | 3.0 | 0.00 | 0.00 | 0.00 | 54 | 1021.2 |
| 20260502121607 | 46 | 51 | 1.0 | 2.0 | 0.00 | 0.00 | 0.00 | 56 | 1021.2 |
| 20260502121104 | 46 | 31 | 1.0 | 2.0 | 0.00 | 0.00 | 0.00 | 56 | 1021.2 |
| 20260502120600 | 46 | 50 | 0.0 | 0.0 | 0.00 | 0.00 | 0.00 | 56 | 1021.3 |
| 20260502115556 | 46 | 334 | 0.0 | 0.0 | 0.00 | 0.00 | 0.00 | 55 | 1021.1 |
| 20260502115050 | 46 | 318 | 0.0 | 0.0 | 0.00 | 0.00 | 0.00 | 55 | 1021.0 |
| 20260502114547 | 45 | 36 | 0.0 | 2.0 | 0.00 | 0.00 | 0.00 | 56 | 1021.0 |
| 20260502114044 | 44 | 309 | 0.0 | 0.0 | 0.00 | 0.00 | 0.00 | 56 | 1020.8 |
| 20260502113542 | 44 | 306 | 0.0 | 0.0 | 0.00 | 0.00 | 0.00 | 56 | 1020.6 |
| 20260502113041 | 44 | 343 | 0.0 | 0.0 | 0.00 | 0.00 | 0.00 | 55 | 1020.6 |
| 20260502112538 | 46 | 331 | 0.0 | 0.0 | 0.00 | 0.00 | 0.00 | 52 | 1020.5 |
| 20260502112035 | 47 | 324 | 0.0 | 0.0 | 0.00 | 0.00 | 0.00 | 51 | 1020.5 |
| 20260502111532 | 49 | 329 | 0.0 | 0.0 | 0.00 | 0.00 | 0.00 | 48 | 1020.4 |
| 20260502111030 | 49 | 28 | 0.0 | 1.0 | 0.00 | 0.00 | 0.00 | 47 | 1020.1 |
| 20260502110527 | 50 | 58 | 1.0 | 2.0 | 0.00 | 0.00 | 0.00 | 47 | 1019.9 |
| 20260502110025 | 51 | 39 | 1.0 | 2.0 | 0.00 | 0.00 | 0.00 | 46 | 1020.0 |
| 20260502105522 | 50 | 356 | 0.0 | 3.0 | 0.00 | 0.00 | 0.00 | 45 | 1019.9 |
| 20260502105019 | 50 | 62 | 0.0 | 4.0 | 0.00 | 0.00 | 0.00 | 45 | 1019.9 |
| 20260502104516 | 49 | 306 | 0.0 | 0.0 | 0.00 | 0.00 | 0.00 | 46 | 1019.8 |
| 20260502104014 | 48 | 303 | 0.0 | 0.0 | 0.00 | 0.00 | 0.00 | 46 | 1019.9 |
| 20260502103511 | 48 | 309 | 0.0 | 0.0 | 0.00 | 0.00 | 0.00 | 47 | 1019.9 |
| 20260502103009 | 46 | 322 | 0.0 | 1.0 | 0.00 | 0.00 | 0.00 | 48 | 1019.8 |
| 20260502102505 | 47 | 317 | 0.0 | 0.0 | 0.00 | 0.00 | 0.00 | 48 | 1019.8 |
| 20260502102002 | 47 | 295 | 0.0 | 0.0 | 0.00 | 0.00 | 0.00 | 48 | 1019.6 |
| 20260502101500 | 46 | 258 | 0.0 | 0.0 | 0.00 | 0.00 | 0.00 | 49 | 1019.6 |
| 20260502100958 | 46 | 286 | 0.0 | 0.0 | 0.00 | 0.00 | 0.00 | 48 | 1019.6 |
| 20260502100457 | 47 | 294 | 0.0 | 1.0 | 0.00 | 0.00 | 0.00 | 47 | 1019.4 |
| 20260502091431 | 44 | 292 | 0.0 | 0.0 | 0.00 | 0.00 | 0.00 | 52 | 1018.9 |
| 20260502090928 | 44 | 274 | 0.0 | 0.0 | 0.00 | 0.00 | 0.00 | 52 | 1018.8 |
| 20260502090425 | 46 | 281 | 0.0 | 0.0 | 0.00 | 0.00 | 0.00 | 50 | 1018.6 |
| 20260502071320 | 45 | 203 | 4.0 | 4.0 | 0.00 | 0.00 | 0.00 | 48 | 1018.5 |
| 20260502070818 | 47 | 166 | 0.0 | 0.0 | 0.00 | 0.00 | 0.00 | 44 | 1018.6 |
| 20260502070315 | 48 | 190 | 0.0 | 0.0 | 0.00 | 0.00 | 0.00 | 42 | 1018.5 |
| 20260502065814 | 48 | 254 | 0.0 | 0.0 | 0.00 | 0.00 | 0.00 | 43 | 1018.4 |
| 20260502065312 | 48 | 289 | 0.0 | 0.0 | 0.00 | 0.00 | 0.00 | 41 | 1018.2 |
| 20260502064810 | 48 | 284 | 1.0 | 2.0 | 0.00 | 0.00 | 0.00 | 42 | 1018.4 |
| 20260502064307 | 48 | 287 | 1.0 | 3.0 | 0.00 | 0.00 | 0.00 | 41 | 1018.4 |
| 20260502063804 | 48 | 296 | 1.0 | 2.0 | 0.00 | 0.00 | 0.00 | 41 | 1018.5 |
| 20260502063302 | 46 | 295 | 0.0 | 0.0 | 0.00 | 0.00 | 0.00 | 44 | 1018.1 |
| 20260502062759 | 46 | 268 | 0.0 | 2.0 | 0.00 | 0.00 | 0.00 | 45 | 1018.4 |
| 20260502062257 | 46 | 259 | 0.0 | 2.0 | 0.00 | 0.00 | 0.00 | 45 | 1018.4 |
| 20260502061755 | 46 | 269 | 0.0 | 0.0 | 0.00 | 0.00 | 0.00 | 43 | 1018.1 |
| 20260502061253 | 47 | 293 | 0.0 | 2.0 | 0.00 | 0.00 | 0.00 | 41 | 1018.1 |
| 20260502060753 | 47 | 285 | 0.0 | 0.0 | 0.00 | 0.00 | 0.00 | 42 | 1018.4 |
| 20260502060248 | 47 | 310 | 2.0 | 3.0 | 0.00 | 0.00 | 0.00 | 41 | 1018.4 |
| 20260502055747 | 48 | 280 | 0.0 | 1.0 | 0.00 | 0.00 | 0.00 | 40 | 1018.4 |
| 20260502055244 | 49 | 295 | 2.0 | 4.0 | 0.00 | 0.00 | 0.00 | 39 | 1018.2 |
| 20260502054743 | 48 | 280 | 0.0 | 0.0 | 0.00 | 0.00 | 0.00 | 41 | 1018.0 |
| 20260502054240 | 49 | 273 | 0.0 | 0.0 | 0.00 | 0.00 | 0.00 | 39 | 1018.1 |
| 20260502053738 | 50 | 269 | 0.0 | 0.0 | 0.00 | 0.00 | 0.00 | 40 | 1018.2 |
| 20260502053235 | 51 | 276 | 0.0 | 0.0 | 0.00 | 0.00 | 0.00 | 35 | 1018.1 |
| 20260502052733 | 53 | 272 | 0.0 | 1.0 | 0.00 | 0.00 | 0.00 | 34 | 1018.2 |
| 20260502052231 | 52 | 267 | 0.0 | 0.0 | 0.00 | 0.00 | 0.00 | 39 | 1018.0 |
| 20260502051728 | 52 | 268 | 0.0 | 0.0 | 0.00 | 0.00 | 0.00 | 37 | 1018.2 |
| 20260502051227 | 51 | 246 | 0.0 | 0.0 | 0.00 | 0.00 | 0.00 | 35 | 1018.1 |
| 20260502050722 | 51 | 262 | 0.0 | 0.0 | 0.00 | 0.00 | 0.00 | 36 | 1018.0 |
| 20260502050219 | 51 | 260 | 0.0 | 0.0 | 0.00 | 0.00 | 0.00 | 39 | 1017.8 |
| 20260502045716 | 51 | 269 | 0.0 | 0.0 | 0.00 | 0.00 | 0.00 | 37 | 1018.0 |
| 20260502045213 | 51 | 244 | 0.0 | 0.0 | 0.00 | 0.00 | 0.00 | 35 | 1018.0 |
| 20260502044710 | 53 | 310 | 0.0 | 2.0 | 0.00 | 0.00 | 0.00 | 32 | 1017.9 |
| 20260502044206 | 53 | 322 | 0.0 | 1.0 | 0.00 | 0.00 | 0.00 | 31 | 1017.9 |
| 20260502043704 | 54 | 302 | 0.0 | 2.0 | 0.00 | 0.00 | 0.00 | 31 | 1017.7 |
| 20260502043201 | 53 | 305 | 0.0 | 0.0 | 0.00 | 0.00 | 0.00 | 31 | 1017.9 |
| 20260502042700 | 55 | 318 | 0.0 | 0.0 | 0.00 | 0.00 | 0.00 | 30 | 1017.8 |
| 20260502042158 | 54 | 291 | 0.0 | 0.0 | 0.00 | 0.00 | 0.00 | 30 | 1017.8 |
| 20260502041655 | 55 | 273 | 0.0 | 0.0 | 0.00 | 0.00 | 0.00 | 30 | 1017.7 |
| 20260502041152 | 56 | 266 | 0.0 | 0.0 | 0.00 | 0.00 | 0.00 | 33 | 1017.7 |
| 20260502040649 | 57 | 269 | 0.0 | 0.0 | 0.00 | 0.00 | 0.00 | 34 | 1017.9 |
| 20260502040146 | 57 | 260 | 0.0 | 0.0 | 0.00 | 0.00 | 0.00 | 29 | 1017.8 |
| 20260502035642 | 56 | 253 | 0.0 | 0.0 | 0.00 | 0.00 | 0.00 | 31 | 1017.9 |
| 20260502035139 | 56 | 254 | 0.0 | 0.0 | 0.00 | 0.00 | 0.00 | 30 | 1017.7 |
| 20260502034637 | 57 | 252 | 0.0 | 0.0 | 0.00 | 0.00 | 0.00 | 29 | 1017.8 |
| 20260502034135 | 59 | 273 | 0.0 | 0.0 | 0.00 | 0.00 | 0.00 | 26 | 1017.6 |
| 20260502033633 | 59 | 292 | 0.0 | 2.0 | 0.00 | 0.00 | 0.00 | 25 | 1017.8 |
| 20260502033131 | 59 | 305 | 0.0 | 0.0 | 0.00 | 0.00 | 0.00 | 26 | 1017.3 |
| 20260502032626 | 60 | 305 | 0.0 | 2.0 | 0.00 | 0.00 | 0.00 | 26 | 1017.5 |
| 20260502032123 | 60 | 325 | 3.0 | 4.0 | 0.00 | 0.00 | 0.00 | 26 | 1017.5 |
| 20260502031621 | 61 | 327 | 2.0 | 3.0 | 0.00 | 0.00 | 0.00 | 26 | 1017.5 |
| 20260502031118 | 59 | 317 | 1.0 | 1.0 | 0.00 | 0.00 | 0.00 | 27 | 1017.4 |
| 20260502030617 | 60 | 297 | 0.0 | 0.0 | 0.00 | 0.00 | 0.00 | 26 | 1017.4 |
| 20260502030115 | 62 | 273 | 0.0 | 2.0 | 0.00 | 0.00 | 0.00 | 25 | 1017.4 |
| 20260502025611 | 62 | 314 | 1.0 | 4.0 | 0.00 | 0.00 | 0.00 | 25 | 1017.4 |
| 20260502025110 | 62 | 298 | 0.0 | 1.0 | 0.00 | 0.00 | 0.00 | 25 | 1017.1 |
| 20260502024607 | 60 | 263 | 0.0 | 0.0 | 0.00 | 0.00 | 0.00 | 27 | 1016.8 |
| 20260502024105 | 59 | 271 | 0.0 | 0.0 | 0.00 | 0.00 | 0.00 | 27 | 1016.9 |
| 20260502023603 | 63 | 319 | 1.0 | 2.0 | 0.00 | 0.00 | 0.00 | 24 | 1017.0 |
| 20260502023100 | 64 | 326 | 1.0 | 2.0 | 0.00 | 0.00 | 0.00 | 23 | 1017.1 |
| 20260502022556 | 65 | 320 | 0.0 | 0.0 | 0.00 | 0.00 | 0.00 | 23 | 1016.8 |
| 20260502022054 | 66 | 319 | 0.0 | 0.0 | 0.00 | 0.00 | 0.00 | 23 | 1016.9 |
| 20260502021551 | 65 | 310 | 0.0 | 0.0 | 0.00 | 0.00 | 0.00 | 23 | 1016.9 |
| 20260502021048 | 66 | 294 | 0.0 | 0.0 | 0.00 | 0.00 | 0.00 | 23 | 1016.8 |
| 20260502020545 | 67 | 288 | 0.0 | 0.0 | 0.00 | 0.00 | 0.00 | 23 | 1017.0 |
| 20260502020042 | 68 | 289 | 0.0 | 0.0 | 0.00 | 0.00 | 0.00 | 22 | 1016.9 |
| 20260502015540 | 69 | 278 | 0.0 | 0.0 | 0.00 | 0.00 | 0.00 | 21 | 1016.7 |
| 20260502015036 | 70 | 281 | 0.0 | 0.0 | 0.00 | 0.00 | 0.00 | 21 | 1016.8 |
| 20260502014533 | 71 | 285 | 0.0 | 0.0 | 0.00 | 0.00 | 0.00 | 21 | 1017.0 |
| 20260502014030 | 72 | 274 | 0.0 | 0.0 | 0.00 | 0.00 | 0.00 | 20 | 1017.0 |
| 20260502013526 | 72 | 298 | 0.0 | 1.0 | 0.00 | 0.00 | 0.00 | 20 | 1016.9 |
| 20260502013022 | 73 | 292 | 0.0 | 0.0 | 0.00 | 0.00 | 0.00 | 20 | 1016.7 |
| 20260502012520 | 74 | 267 | 0.0 | 1.0 | 0.00 | 0.00 | 0.00 | 19 | 1017.1 |
| 20260502012017 | 74 | 266 | 3.0 | 4.0 | 0.00 | 0.00 | 0.00 | 18 | 1016.9 |
| 20260502011513 | 76 | 265 | 0.0 | 1.0 | 0.00 | 0.00 | 0.00 | 18 | 1017.1 |
| 20260502011010 | 76 | 265 | 0.0 | 3.0 | 0.00 | 0.00 | 0.00 | 18 | 1017.1 |
| 20260502010508 | 76 | 257 | 2.0 | 2.0 | 0.00 | 0.00 | 0.00 | 18 | 1017.1 |
| 20260502010003 | 76 | 280 | 3.0 | 6.0 | 0.00 | 0.00 | 0.00 | 18 | 1017.3 |
| 20260502005502 | 76 | 256 | 2.0 | 2.0 | 0.00 | 0.00 | 0.00 | 17 | 1017.1 |
| 20260502004959 | 76 | 264 | 2.0 | 7.0 | 0.00 | 0.00 | 0.00 | 18 | 1017.3 |
| 20260502004454 | 76 | 246 | 1.0 | 3.0 | 0.00 | 0.00 | 0.00 | 17 | 1017.4 |
| 20260502003952 | 75 | 238 | 0.0 | 4.0 | 0.00 | 0.00 | 0.00 | 18 | 1017.4 |
| 20260502003449 | 76 | 245 | 3.0 | 6.0 | 0.00 | 0.00 | 0.00 | 17 | 1017.4 |
| 20260502002945 | 76 | 299 | 0.0 | 1.0 | 0.00 | 0.00 | 0.00 | 18 | 1017.3 |
| 20260502002443 | 77 | 290 | 2.0 | 4.0 | 0.00 | 0.00 | 0.00 | 17 | 1017.5 |
| 20260502001940 | 77 | 208 | 3.0 | 7.0 | 0.00 | 0.00 | 0.00 | 18 | 1017.6 |
| 20260502001437 | 77 | 307 | 3.0 | 6.0 | 0.00 | 0.00 | 0.00 | 18 | 1017.3 |
| 20260502000935 | 77 | 271 | 1.0 | 2.0 | 0.00 | 0.00 | 0.00 | 18 | 1017.5 |
| 20260502000433 | 75 | 232 | 0.0 | 0.0 | 0.00 | 0.00 | 0.00 | 18 | 1017.4 |
| 20260501235929 | 76 | 197 | 0.0 | 6.0 | 0.00 | 0.00 | 0.00 | 17 | 1017.6 |
| 20260501235425 | 76 | 224 | 0.0 | 0.0 | 0.00 | 0.00 | 0.00 | 17 | 1017.4 |
| 20260501234920 | 75 | 231 | 2.0 | 7.0 | 0.00 | 0.00 | 0.00 | 18 | 1017.4 |
| 20260501234417 | 76 | 229 | 5.0 | 8.0 | 0.00 | 0.00 | 0.00 | 18 | 1017.6 |
| 20260501233916 | 75 | 235 | 3.0 | 8.0 | 0.00 | 0.00 | 0.00 | 19 | 1017.7 |
| 20260501233413 | 75 | 202 | 6.0 | 7.0 | 0.00 | 0.00 | 0.00 | 18 | 1017.8 |
| 20260501232908 | 76 | 289 | 2.0 | 4.0 | 0.00 | 0.00 | 0.00 | 18 | 1017.7 |
| 20260501232406 | 75 | 205 | 5.0 | 11.0 | 0.00 | 0.00 | 0.00 | 17 | 1017.6 |
| 20260501231903 | 76 | 206 | 6.0 | 8.0 | 0.00 | 0.00 | 0.00 | 18 | 1017.6 |
| 20260501231401 | 76 | 265 | 4.0 | 6.0 | 0.00 | 0.00 | 0.00 | 18 | 1017.8 |
| 20260501230859 | 76 | 240 | 5.0 | 7.0 | 0.00 | 0.00 | 0.00 | 17 | 1017.9 |
| 20260501230358 | 76 | 267 | 3.0 | 7.0 | 0.00 | 0.00 | 0.00 | 19 | 1018.0 |
| 20260501225855 | 76 | 214 | 6.0 | 14.0 | 0.00 | 0.00 | 0.00 | 19 | 1018.0 |
| 20260501225353 | 76 | 220 | 7.0 | 14.0 | 0.00 | 0.00 | 0.00 | 19 | 1017.9 |
| 20260501224848 | 75 | 230 | 8.0 | 13.0 | 0.00 | 0.00 | 0.00 | 17 | 1018.0 |
| 20260501224346 | 76 | 259 | 4.0 | 11.0 | 0.00 | 0.00 | 0.00 | 19 | 1018.1 |
| 20260501223842 | 76 | 248 | 3.0 | 13.0 | 0.00 | 0.00 | 0.00 | 19 | 1018.0 |
| 20260501223338 | 76 | 254 | 4.0 | 6.0 | 0.00 | 0.00 | 0.00 | 18 | 1018.4 |
| 20260501222834 | 76 | 241 | 9.0 | 10.0 | 0.00 | 0.00 | 0.00 | 17 | 1018.2 |
| 20260501222332 | 76 | 272 | 4.0 | 6.0 | 0.00 | 0.00 | 0.00 | 18 | 1018.2 |
| 20260501221828 | 76 | 290 | 6.0 | 14.0 | 0.00 | 0.00 | 0.00 | 19 | 1018.0 |
| 20260501221325 | 76 | 287 | 7.0 | 8.0 | 0.00 | 0.00 | 0.00 | 18 | 1018.5 |
| 20260501220824 | 76 | 307 | 4.0 | 10.0 | 0.00 | 0.00 | 0.00 | 19 | 1018.4 |
| 20260501220320 | 76 | 259 | 4.0 | 14.0 | 0.00 | 0.00 | 0.00 | 19 | 1018.4 |
| 20260501215817 | 76 | 322 | 4.0 | 9.0 | 0.00 | 0.00 | 0.00 | 19 | 1018.4 |
| 20260501215313 | 76 | 259 | 4.0 | 10.0 | 0.00 | 0.00 | 0.00 | 18 | 1018.5 |
| 20260501214809 | 75 | 217 | 1.0 | 9.0 | 0.00 | 0.00 | 0.00 | 18 | 1018.6 |
| 20260501214304 | 75 | 260 | 6.0 | 9.0 | 0.00 | 0.00 | 0.00 | 18 | 1018.6 |
| 20260501213800 | 75 | 261 | 5.0 | 8.0 | 0.00 | 0.00 | 0.00 | 18 | 1018.9 |
| 20260501213257 | 76 | 250 | 6.0 | 8.0 | 0.00 | 0.00 | 0.00 | 17 | 1018.7 |
| 20260501212753 | 75 | 214 | 6.0 | 9.0 | 0.00 | 0.00 | 0.00 | 18 | 1018.8 |
| 20260501212249 | 74 | 257 | 6.0 | 10.0 | 0.00 | 0.00 | 0.00 | 16 | 1018.9 |
| 20260501211747 | 75 | 258 | 4.0 | 10.0 | 0.00 | 0.00 | 0.00 | 18 | 1019.1 |
| 20260501211244 | 73 | 251 | 0.0 | 2.0 | 0.00 | 0.00 | 0.00 | 19 | 1019.0 |
| 20260501210741 | 75 | 337 | 1.0 | 7.0 | 0.00 | 0.00 | 0.00 | 19 | 1018.9 |
| 20260501210237 | 75 | 270 | 6.0 | 10.0 | 0.00 | 0.00 | 0.00 | 19 | 1019.0 |
| 20260501205734 | 75 | 284 | 2.0 | 3.0 | 0.00 | 0.00 | 0.00 | 21 | 1019.1 |
| 20260501205231 | 74 | 280 | 0.0 | 2.0 | 0.00 | 0.00 | 0.00 | 19 | 1019.2 |
| 20260501204728 | 75 | 335 | 5.0 | 10.0 | 0.00 | 0.00 | 0.00 | 19 | 1019.1 |
| 20260501204225 | 73 | 252 | 6.0 | 8.0 | 0.00 | 0.00 | 0.00 | 19 | 1019.1 |
| 20260501203721 | 74 | 251 | 6.0 | 11.0 | 0.00 | 0.00 | 0.00 | 19 | 1019.1 |
| 20260501203218 | 73 | 223 | 0.0 | 6.0 | 0.00 | 0.00 | 0.00 | 20 | 1019.2 |
| 20260501202715 | 75 | 329 | 3.0 | 8.0 | 0.00 | 0.00 | 0.00 | 21 | 1019.3 |
| 20260501202212 | 73 | 302 | 6.0 | 10.0 | 0.00 | 0.00 | 0.00 | 22 | 1019.3 |
| 20260501201709 | 72 | 240 | 1.0 | 9.0 | 0.00 | 0.00 | 0.00 | 20 | 1019.2 |
| 20260501201205 | 74 | 274 | 3.0 | 9.0 | 0.00 | 0.00 | 0.00 | 22 | 1019.6 |
| 20260501200702 | 72 | 214 | 1.0 | 6.0 | 0.00 | 0.00 | 0.00 | 20 | 1019.4 |
| 20260501200200 | 73 | 223 | 1.0 | 3.0 | 0.00 | 0.00 | 0.00 | 22 | 1019.3 |
| 20260501195657 | 73 | 234 | 5.0 | 10.0 | 0.00 | 0.00 | 0.00 | 22 | 1019.6 |
| 20260501195153 | 73 | 179 | 8.0 | 10.0 | 0.00 | 0.00 | 0.00 | 22 | 1019.3 |
| 20260501194649 | 73 | 230 | 5.0 | 9.0 | 0.00 | 0.00 | 0.00 | 23 | 1019.6 |
| 20260501194144 | 73 | 274 | 1.0 | 6.0 | 0.00 | 0.00 | 0.00 | 21 | 1019.8 |
| 20260501193641 | 71 | 341 | 3.0 | 4.0 | 0.00 | 0.00 | 0.00 | 23 | 1020.0 |
| 20260501193140 | 73 | 255 | 8.0 | 9.0 | 0.00 | 0.00 | 0.00 | 21 | 1019.8 |
| 20260501192637 | 73 | 273 | 6.0 | 8.0 | 0.00 | 0.00 | 0.00 | 22 | 1019.8 |
| 20260501192134 | 73 | 285 | 5.0 | 8.0 | 0.00 | 0.00 | 0.00 | 22 | 1019.7 |
| 20260501191631 | 72 | 265 | 5.0 | 13.0 | 0.00 | 0.00 | 0.00 | 23 | 1019.8 |
| 20260501191128 | 71 | 243 | 2.0 | 7.0 | 0.00 | 0.00 | 0.00 | 25 | 1019.9 |
| 20260501190625 | 71 | 320 | 2.0 | 6.0 | 0.00 | 0.00 | 0.00 | 23 | 1019.8 |
| 20260501190120 | 71 | 311 | 1.0 | 4.0 | 0.00 | 0.00 | 0.00 | 23 | 1020.0 |
| 20260501185616 | 70 | 288 | 0.0 | 1.0 | 0.00 | 0.00 | 0.00 | 24 | 1020.0 |
| 20260501185112 | 70 | 217 | 6.0 | 7.0 | 0.00 | 0.00 | 0.00 | 25 | 1020.1 |